Time,TemperatureF,DewpointF,PressureIn,WindDirection,WindDirectionDegrees,WindSpeedMPH,WindSpeedGustMPH,Humidity,HourlyPrecipIn,Conditions,Clouds,dailyrainin,SoftwareType,DateUTC
2013-03-15 00:03:00,29.0,4.0,29.88,NW,319,4.0,11.0,34,0.00,,,0.00,,2013-03-15 04:03:00,
2013-03-15 00:12:00,29.0,4.0,29.88,NW,319,4.0,11.0,34,0.00,,,0.00,,2013-03-15 04:12:00,
2013-03-15 00:23:00,29.0,5.0,29.88,North,5,1.0,5.0,35,0.00,,,0.00,,2013-03-15 04:23:00,
2013-03-15 00:32:00,29.0,5.0,29.88,NW,306,2.0,10.0,35,0.00,,,0.00,,2013-03-15 04:32:00,
2013-03-15 00:43:00,29.0,5.0,29.88,NW,306,2.0,10.0,35,0.00,,,0.00,,2013-03-15 04:43:00,
2013-03-15 00:52:00,29.0,5.0,29.88,NNW,330,1.0,7.0,35,0.00,,,0.00,,2013-03-15 04:52:00,
2013-03-15 01:02:00,29.0,5.0,29.89,NW,321,1.0,7.0,36,0.00,,,0.00,,2013-03-15 05:02:00,
2013-03-15 01:12:00,29.0,5.0,29.89,NW,321,1.0,7.0,36,0.00,,,0.00,,2013-03-15 05:12:00,
2013-03-15 01:22:00,29.0,6.0,29.89,NNW,337,2.0,8.0,37,0.00,,,0.00,,2013-03-15 05:22:00,
2013-03-15 01:32:00,28.0,6.0,29.89,WSW,237,2.0,8.0,38,0.00,,,0.00,,2013-03-15 05:32:00,
2013-03-15 01:42:00,28.0,6.0,29.89,WSW,237,2.0,8.0,38,0.00,,,0.00,,2013-03-15 05:42:00,
2013-03-15 01:52:00,28.0,7.0,29.89,North,353,1.0,19.0,40,0.00,,,0.00,,2013-03-15 05:52:00,
2013-03-15 02:02:00,28.0,7.0,29.89,West,275,2.0,7.0,41,0.00,,,0.00,,2013-03-15 06:02:00,
2013-03-15 02:12:00,28.0,7.0,29.89,West,275,2.0,7.0,41,0.00,,,0.00,,2013-03-15 06:12:00,
2013-03-15 02:22:00,28.0,7.0,29.89,West,275,2.0,7.0,41,0.00,,,0.00,,2013-03-15 06:22:00,
2013-03-15 02:32:00,28.0,8.0,29.89,NW,325,2.0,9.0,43,0.00,,,0.00,,2013-03-15 06:32:00,
2013-03-15 02:42:00,28.0,8.0,29.89,NW,325,2.0,9.0,43,0.00,,,0.00,,2013-03-15 06:42:00,
2013-03-15 02:52:00,28.0,8.0,29.89,NW,325,2.0,9.0,43,0.00,,,0.00,,2013-03-15 06:52:00,
2013-03-15 03:02:00,28.0,8.0,29.89,North,350,1.0,5.0,43,0.00,,,0.00,,2013-03-15 07:02:00,
2013-03-15 03:12:00,28.0,8.0,29.89,North,350,1.0,5.0,43,0.00,,,0.00,,2013-03-15 07:12:00,
2013-03-15 03:22:00,28.0,9.0,29.88,WSW,256,2.0,6.0,45,0.00,,,0.00,,2013-03-15 07:22:00,
2013-03-15 03:32:00,28.0,9.0,29.88,West,268,1.0,4.0,45,0.00,,,0.00,,2013-03-15 07:32:00,
2013-03-15 03:42:00,28.0,9.0,29.88,West,268,1.0,4.0,45,0.00,,,0.00,,2013-03-15 07:42:00,
2013-03-15 03:52:00,27.0,9.0,29.88,WNW,288,2.0,7.0,45,0.00,,,0.00,,2013-03-15 07:52:00,
2013-03-15 04:02:00,27.0,9.0,29.88,West,267,1.0,6.0,46,0.00,,,0.00,,2013-03-15 08:02:00,
2013-03-15 04:12:00,27.0,9.0,29.88,West,267,1.0,6.0,46,0.00,,,0.00,,2013-03-15 08:12:00,
2013-03-15 04:23:00,27.0,9.0,29.88,West,267,1.0,6.0,46,0.00,,,0.00,,2013-03-15 08:23:00,
2013-03-15 04:33:00,27.0,10.0,29.88,West,267,2.0,9.0,48,0.00,,,0.00,,2013-03-15 08:33:00,
2013-03-15 04:42:00,27.0,10.0,29.88,West,267,2.0,9.0,48,0.00,,,0.00,,2013-03-15 08:42:00,
2013-03-15 04:52:00,27.0,10.0,29.88,West,259,1.0,6.0,48,0.00,,,0.00,,2013-03-15 08:52:00,
2013-03-15 05:02:00,27.0,10.0,29.88,West,272,0.0,5.0,49,0.00,,,0.00,,2013-03-15 09:02:00,
2013-03-15 05:12:00,27.0,10.0,29.88,West,272,0.0,5.0,49,0.00,,,0.00,,2013-03-15 09:12:00,
2013-03-15 05:22:00,27.0,10.0,29.87,WNW,286,3.0,9.0,49,0.00,,,0.00,,2013-03-15 09:22:00,
2013-03-15 05:33:00,27.0,10.0,29.88,South,181,1.0,7.0,49,0.00,,,0.00,,2013-03-15 09:33:00,
2013-03-15 05:43:00,27.0,10.0,29.88,South,181,1.0,7.0,49,0.00,,,0.00,,2013-03-15 09:43:00,
2013-03-15 05:52:00,27.0,10.0,29.88,ESE,121,1.0,7.0,49,0.00,,,0.00,,2013-03-15 09:52:00,
2013-03-15 06:03:00,27.0,11.0,29.88,East,79,1.0,5.0,50,0.00,,,0.00,,2013-03-15 10:03:00,
2013-03-15 06:13:00,27.0,11.0,29.88,East,79,1.0,5.0,50,0.00,,,0.00,,2013-03-15 10:13:00,
2013-03-15 06:20:00,27.0,12.0,29.89,West,276,2.0,5.0,52,0.00,,,0.00,,2013-03-15 10:20:00,
2013-03-15 06:23:00,27.0,11.0,29.88,East,79,1.0,5.0,50,0.00,,,0.00,,2013-03-15 10:23:00,
2013-03-15 06:33:00,27.0,12.0,29.89,West,276,2.0,5.0,52,0.00,,,0.00,,2013-03-15 10:33:00,
2013-03-15 06:42:00,27.0,12.0,29.89,West,276,2.0,5.0,52,0.00,,,0.00,,2013-03-15 10:42:00,
2013-03-15 06:52:00,27.0,12.0,29.89,West,276,2.0,5.0,52,0.00,,,0.00,,2013-03-15 10:52:00,
2013-03-15 07:03:00,27.0,12.0,29.89,West,276,2.0,5.0,52,0.00,,,0.00,,2013-03-15 11:03:00,
2013-03-15 07:12:00,27.0,12.0,29.89,West,276,2.0,5.0,52,0.00,,,0.00,,2013-03-15 11:12:00,
2013-03-15 07:32:00,26.0,11.0,29.89,West,273,0.0,5.0,53,0.00,,,0.00,,2013-03-15 11:32:00,
2013-03-15 07:42:00,26.0,11.0,29.89,West,273,0.0,5.0,53,0.00,,,0.00,,2013-03-15 11:42:00,
2013-03-15 07:52:00,26.0,11.0,29.89,West,273,0.0,5.0,53,0.00,,,0.00,,2013-03-15 11:52:00,
2013-03-15 08:02:00,27.0,13.0,29.89,WNW,297,1.0,2.0,56,0.00,,,0.00,,2013-03-15 12:02:00,
2013-03-15 08:12:00,27.0,13.0,29.89,WNW,297,1.0,2.0,56,0.00,,,0.00,,2013-03-15 12:12:00,
2013-03-15 08:23:00,28.0,14.0,29.89,WSW,256,1.0,5.0,54,0.00,,,0.00,,2013-03-15 12:23:00,
2013-03-15 08:32:00,28.0,13.0,29.89,SW,230,1.0,4.0,53,0.00,,,0.00,,2013-03-15 12:32:00,
2013-03-15 08:42:00,28.0,13.0,29.89,SW,230,1.0,4.0,53,0.00,,,0.00,,2013-03-15 12:42:00,
2013-03-15 08:52:00,30.0,14.0,29.89,West,262,3.0,6.0,50,0.00,,,0.00,,2013-03-15 12:52:00,
2013-03-15 09:02:00,29.0,13.0,29.89,WSW,251,1.0,7.0,51,0.00,,,0.00,,2013-03-15 13:02:00,
2013-03-15 09:12:00,29.0,13.0,29.89,WSW,251,1.0,7.0,51,0.00,,,0.00,,2013-03-15 13:12:00,
2013-03-15 09:22:00,29.0,13.0,29.89,WSW,251,1.0,7.0,51,0.00,,,0.00,,2013-03-15 13:22:00,
2013-03-15 09:32:00,30.0,14.0,29.88,WSW,252,1.0,5.0,51,0.00,,,0.00,,2013-03-15 13:32:00,
2013-03-15 09:42:00,30.0,14.0,29.88,WSW,252,1.0,5.0,51,0.00,,,0.00,,2013-03-15 13:42:00,
2013-03-15 09:53:00,30.0,14.0,29.88,WSW,244,2.0,4.0,50,0.00,,,0.00,,2013-03-15 13:53:00,
2013-03-15 10:02:00,32.0,14.0,29.88,WSW,254,3.0,5.0,47,0.00,,,0.00,,2013-03-15 14:02:00,
2013-03-15 10:12:00,32.0,14.0,29.88,WSW,254,3.0,5.0,47,0.00,,,0.00,,2013-03-15 14:12:00,
2013-03-15 10:22:00,32.0,13.0,29.88,WSW,249,3.0,6.0,45,0.00,,,0.00,,2013-03-15 14:22:00,
2013-03-15 10:32:00,32.0,13.0,29.87,SW,233,2.0,6.0,44,0.00,,,0.00,,2013-03-15 14:32:00,
2013-03-15 10:42:00,32.0,13.0,29.87,SW,233,2.0,6.0,44,0.00,,,0.00,,2013-03-15 14:42:00,
2013-03-15 10:52:00,32.0,13.0,29.87,SW,233,2.0,6.0,44,0.00,,,0.00,,2013-03-15 14:52:00,
2013-03-15 11:02:00,33.0,12.0,29.86,SW,230,1.0,4.0,41,0.00,,,0.00,,2013-03-15 15:02:00,
2013-03-15 11:13:00,33.0,12.0,29.86,SW,230,1.0,4.0,41,0.00,,,0.00,,2013-03-15 15:13:00,
2013-03-15 11:23:00,33.0,12.0,29.85,SSW,213,1.0,5.0,41,0.00,,,0.00,,2013-03-15 15:23:00,
2013-03-15 11:33:00,35.0,12.0,29.84,SW,220,3.0,8.0,38,0.00,,,0.00,,2013-03-15 15:33:00,
2013-03-15 11:42:00,35.0,12.0,29.84,SW,220,3.0,8.0,38,0.00,,,0.00,,2013-03-15 15:42:00,
2013-03-15 11:52:00,35.0,12.0,29.84,SW,220,3.0,8.0,38,0.00,,,0.00,,2013-03-15 15:52:00,
2013-03-15 12:03:00,37.0,14.0,29.83,WSW,240,4.0,9.0,39,0.00,,,0.00,,2013-03-15 16:03:00,
2013-03-15 12:12:00,38.0,13.0,29.82,WSW,253,3.0,8.0,35,0.00,,,0.00,,2013-03-15 16:12:00,
2013-03-15 12:23:00,38.0,13.0,29.82,WSW,253,3.0,8.0,35,0.00,,,0.00,,2013-03-15 16:23:00,
2013-03-15 12:32:00,38.0,13.0,29.82,WSW,253,3.0,8.0,35,0.00,,,0.00,,2013-03-15 16:32:00,
2013-03-15 12:42:00,38.0,13.0,29.82,WSW,253,3.0,8.0,35,0.00,,,0.00,,2013-03-15 16:42:00,
2013-03-15 12:52:00,38.0,14.0,29.79,SW,227,6.0,10.0,37,0.00,,,0.00,,2013-03-15 16:52:00,
2013-03-15 13:02:00,38.0,15.0,29.79,SSW,210,4.0,12.0,39,0.00,,,0.00,,2013-03-15 17:02:00,
2013-03-15 13:12:00,38.0,15.0,29.79,SSW,210,4.0,12.0,39,0.00,,,0.00,,2013-03-15 17:12:00,
2013-03-15 13:22:00,38.0,16.0,29.77,SW,222,4.0,14.0,40,0.00,,,0.00,,2013-03-15 17:22:00,
2013-03-15 13:32:00,38.0,18.0,29.77,SW,220,5.0,15.0,43,0.00,,,0.00,,2013-03-15 17:32:00,
2013-03-15 13:42:00,38.0,18.0,29.77,SW,220,5.0,15.0,43,0.00,,,0.00,,2013-03-15 17:42:00,
2013-03-15 13:53:00,38.0,18.0,29.77,SW,220,5.0,15.0,43,0.00,,,0.00,,2013-03-15 17:53:00,
2013-03-15 14:02:00,39.0,19.0,29.76,WSW,250,4.0,9.0,44,0.00,,,0.00,,2013-03-15 18:02:00,
2013-03-15 14:12:00,39.0,19.0,29.76,WSW,250,4.0,9.0,44,0.00,,,0.00,,2013-03-15 18:12:00,
2013-03-15 14:22:00,40.0,21.0,29.75,WSW,252,2.0,7.0,46,0.00,,,0.00,,2013-03-15 18:22:00,
2013-03-15 14:32:00,39.0,21.0,29.74,WSW,242,5.0,13.0,49,0.00,,,0.00,,2013-03-15 18:32:00,
2013-03-15 14:42:00,39.0,21.0,29.74,WSW,242,5.0,13.0,49,0.00,,,0.00,,2013-03-15 18:42:00,
2013-03-15 14:52:00,38.0,22.0,29.74,WSW,249,4.0,8.0,52,0.00,,,0.00,,2013-03-15 18:52:00,
2013-03-15 15:02:00,38.0,22.0,29.74,WSW,249,4.0,8.0,52,0.00,,,0.00,,2013-03-15 19:02:00,
2013-03-15 15:12:00,38.0,22.0,29.74,WSW,249,4.0,8.0,52,0.00,,,0.00,,2013-03-15 19:12:00,
2013-03-15 15:22:00,39.0,24.0,29.72,WSW,250,5.0,9.0,54,0.00,,,0.00,,2013-03-15 19:22:00,
2013-03-15 15:32:00,38.0,24.0,29.71,SSW,207,4.0,12.0,56,0.00,,,0.00,,2013-03-15 19:32:00,
2013-03-15 15:42:00,38.0,24.0,29.71,SSW,207,4.0,12.0,56,0.00,,,0.00,,2013-03-15 19:42:00,
2013-03-15 15:53:00,38.0,24.0,29.70,WSW,242,5.0,11.0,56,0.00,,,0.00,,2013-03-15 19:53:00,
2013-03-15 16:02:00,39.0,24.0,29.70,WSW,245,3.0,10.0,54,0.00,,,0.00,,2013-03-15 20:02:00,
2013-03-15 16:12:00,39.0,24.0,29.70,WSW,245,3.0,10.0,54,0.00,,,0.00,,2013-03-15 20:12:00,
2013-03-15 16:20:00,39.0,23.0,29.69,SW,235,1.0,5.0,52,0.00,,,0.00,,2013-03-15 20:20:00,
2013-03-15 16:22:00,39.0,23.0,29.69,WSW,239,2.0,11.0,53,0.00,,,0.00,,2013-03-15 20:22:00,
2013-03-15 16:32:00,39.0,23.0,29.69,SW,235,1.0,5.0,52,0.00,,,0.00,,2013-03-15 20:32:00,
2013-03-15 16:42:00,39.0,23.0,29.69,SW,235,1.0,5.0,52,0.00,,,0.00,,2013-03-15 20:42:00,
2013-03-15 16:52:00,39.0,23.0,29.69,SW,235,1.0,5.0,52,0.00,,,0.00,,2013-03-15 20:52:00,
2013-03-15 17:02:00,39.0,23.0,29.69,SW,235,1.0,5.0,52,0.00,,,0.00,,2013-03-15 21:02:00,
2013-03-15 17:12:00,39.0,23.0,29.69,SW,235,1.0,5.0,52,0.00,,,0.00,,2013-03-15 21:12:00,
2013-03-15 17:33:00,40.0,25.0,29.68,WSW,253,5.0,9.0,55,0.00,,,0.00,,2013-03-15 21:33:00,
2013-03-15 17:43:00,40.0,25.0,29.68,WSW,253,5.0,9.0,55,0.00,,,0.00,,2013-03-15 21:43:00,
2013-03-15 17:53:00,40.0,25.0,29.68,WSW,246,1.0,4.0,55,0.00,,,0.00,,2013-03-15 21:53:00,
2013-03-15 18:04:00,40.0,25.0,29.67,West,266,3.0,5.0,54,0.00,,,0.00,,2013-03-15 22:04:00,
2013-03-15 18:14:00,40.0,25.0,29.67,West,266,3.0,5.0,54,0.00,,,0.00,,2013-03-15 22:14:00,
2013-03-15 18:22:00,40.0,25.0,29.68,WSW,239,1.0,5.0,55,0.00,,,0.00,,2013-03-15 22:22:00,
2013-03-15 18:32:00,40.0,25.0,29.68,WSW,249,0.0,4.0,55,0.00,,,0.00,,2013-03-15 22:32:00,
2013-03-15 18:42:00,40.0,25.0,29.68,WSW,249,0.0,4.0,55,0.00,,,0.00,,2013-03-15 22:42:00,
2013-03-15 18:52:00,40.0,26.0,29.68,West,265,3.0,9.0,56,0.00,,,0.00,,2013-03-15 22:52:00,
2013-03-15 19:02:00,40.0,26.0,29.68,West,264,1.0,10.0,58,0.00,,,0.00,,2013-03-15 23:02:00,
2013-03-15 19:12:00,40.0,26.0,29.68,West,264,1.0,10.0,58,0.00,,,0.00,,2013-03-15 23:12:00,
2013-03-15 19:22:00,40.0,26.0,29.68,West,264,1.0,10.0,58,0.00,,,0.00,,2013-03-15 23:22:00,
2013-03-15 19:32:00,40.0,26.0,29.68,West,264,1.0,10.0,58,0.00,,,0.00,,2013-03-15 23:32:00,
2013-03-15 19:40:00,40.0,27.0,29.69,NW,317,0.0,1.0,60,0.00,,,0.00,,2013-03-15 23:40:00,
2013-03-15 19:42:00,40.0,26.0,29.68,West,264,1.0,10.0,58,0.00,,,0.00,,2013-03-15 23:42:00,
2013-03-15 19:52:00,40.0,27.0,29.69,NW,316,0.0,1.0,59,0.00,,,0.00,,2013-03-15 23:52:00,
2013-03-15 20:03:00,40.0,27.0,29.69,NW,317,0.0,1.0,60,0.00,,,0.00,,2013-03-16 00:03:00,
2013-03-15 20:12:00,40.0,27.0,29.69,NW,317,0.0,1.0,60,0.00,,,0.00,,2013-03-16 00:12:00,
2013-03-15 20:22:00,40.0,27.0,29.69,NW,317,0.0,1.0,60,0.00,,,0.00,,2013-03-16 00:22:00,
2013-03-15 20:32:00,40.0,27.0,29.69,NW,317,0.0,1.0,60,0.00,,,0.00,,2013-03-16 00:32:00,
2013-03-15 21:03:00,39.0,28.0,29.71,West,269,1.0,5.0,64,0.00,,,0.00,,2013-03-16 01:03:00,
2013-03-15 21:12:00,39.0,28.0,29.71,West,269,1.0,5.0,64,0.00,,,0.00,,2013-03-16 01:12:00,
2013-03-15 21:22:00,39.0,28.0,29.71,WNW,295,0.0,5.0,64,0.00,,,0.00,,2013-03-16 01:22:00,
2013-03-15 21:32:00,39.0,28.0,29.71,WNW,285,1.0,3.0,65,0.00,,,0.00,,2013-03-16 01:32:00,
2013-03-15 21:42:00,39.0,28.0,29.71,WNW,285,1.0,3.0,65,0.00,,,0.00,,2013-03-16 01:42:00,
2013-03-15 21:52:00,39.0,28.0,29.71,WNW,285,1.0,3.0,65,0.00,,,0.00,,2013-03-16 01:52:00,
2013-03-15 22:02:00,39.0,28.0,29.72,West,281,1.0,3.0,65,0.00,,,0.00,,2013-03-16 02:02:00,
2013-03-15 22:12:00,39.0,28.0,29.72,West,281,1.0,3.0,65,0.00,,,0.00,,2013-03-16 02:12:00,
2013-03-15 22:23:00,38.0,27.0,29.72,SSW,195,0.0,3.0,65,0.00,,,0.00,,2013-03-16 02:23:00,
2013-03-15 22:33:00,38.0,27.0,29.72,SSW,195,0.0,3.0,65,0.00,,,0.00,,2013-03-16 02:33:00,
2013-03-15 22:42:00,38.0,27.0,29.72,SSW,195,0.0,3.0,65,0.00,,,0.00,,2013-03-16 02:42:00,
2013-03-15 22:52:00,38.0,27.0,29.72,SSW,195,0.0,3.0,65,0.00,,,0.00,,2013-03-16 02:52:00,
2013-03-15 23:02:00,37.0,26.0,29.72,WNW,286,1.0,4.0,64,0.00,,,0.00,,2013-03-16 03:02:00,
2013-03-15 23:12:00,37.0,26.0,29.72,WNW,286,1.0,4.0,64,0.00,,,0.00,,2013-03-16 03:12:00,
2013-03-15 23:22:00,37.0,26.0,29.73,West,268,1.0,10.0,64,0.00,,,0.00,,2013-03-16 03:22:00,
2013-03-15 23:33:00,37.0,26.0,29.73,SSE,151,0.0,3.0,64,0.00,,,0.00,,2013-03-16 03:33:00,
2013-03-15 23:43:00,37.0,26.0,29.73,SSE,151,0.0,3.0,64,0.00,,,0.00,,2013-03-16 03:43:00,
2013-03-15 23:52:00,36.0,25.0,29.73,WNW,282,0.0,3.0,64,0.00,,,0.00,,2013-03-16 03:52:00,